This is the latest recevied weather packets stored in our database for station/object KT2UU-13. If no packets are shown the sender has not sent any weather packets the latest 10 day(s).
| Time | Temp. | Humidity | Pressure | Rain* | Wind** | Luminosity | Snow |
|---|---|---|---|---|---|---|---|
| 1777382392 | 13.89° C | 99% | 1023.9 hPa | 3.05 mm | - | - | - |
| 1777382088 | 13.89° C | 99% | 1024.3 hPa | 1.27 mm | - | - | - |
| 1777381785 | 13.89° C | 99% | 1024.9 hPa | 1.78 mm | - | - | - |
| 1777381479 | 13.89° C | 99% | 1024.8 hPa | 6.1 mm | - | - | - |
| 1777381176 | 13.89° C | 99% | 1024.9 hPa | 12.7 mm | - | - | - |
| 1777380873 | 13.89° C | 99% | 1025.3 hPa | 22.86 mm | - | - | - |
| 1777380570 | 13.89° C | 99% | 1025.2 hPa | 13.72 mm | - | - | - |
| 1777380266 | 13.89° C | 99% | 1024.9 hPa | 1.78 mm | - | - | - |
| 1777379962 | 13.89° C | 99% | 1024.2 hPa | 0 mm | - | - | - |
| 1777379658 | 13.89° C | 99% | 1023.4 hPa | 0 mm | - | - | - |
| 1777379354 | 13.89° C | 99% | 1023.1 hPa | 0 mm | - | - | - |
| 1777379050 | 13.89° C | 99% | 1023.3 hPa | 1.78 mm | - | - | - |
| 1777378744 | 13.89° C | 99% | 1022.9 hPa | 1.78 mm | - | - | - |
| 1777378441 | 13.89° C | 99% | 1023 hPa | 1.27 mm | - | - | - |
| 1777378136 | 13.89° C | 99% | 1023.1 hPa | 3.05 mm | - | - | - |
| 1777377830 | 13.89° C | 99% | 1022.8 hPa | 3.05 mm | - | - | - |
| 1777377530 | 13.89° C | 99% | 1021.6 hPa | 3.05 mm | - | - | - |
| 1777377225 | 13.89° C | 98% | 1022.9 hPa | 3.05 mm | - | - | - |
| 1777376923 | 13.89° C | 98% | 1023.3 hPa | 3.05 mm | - | - | - |
| 1777376619 | 13.89° C | 98% | 1023.5 hPa | 3.05 mm | - | - | - |
| 1777376316 | 13.89° C | 97% | 1023.4 hPa | 4.32 mm | - | - | - |
| 1777376012 | 13.89° C | 97% | 1023.2 hPa | 4.83 mm | - | - | - |
| 1777375711 | 14.44° C | 96% | 1023.2 hPa | 6.6 mm | - | - | - |
| 1777375407 | 14.44° C | 96% | 1023.3 hPa | 21.59 mm | - | - | - |
| 1777375104 | 14.44° C | 95% | 1023.8 hPa | 37.85 mm | - | - | - |
* Rain latest hour (hover to see other rain measurements)
** Current wind speed in m/s (hover to see current wind gust speed)